Theta_e
319 318 316 316 315 315 314 315 316 316 315 315 316 317 317 317 317 318 317 318 325 331 331 334 335 333 334 334 333 333 331 328 326 326 326 325 325 325 324 323 321 320 319
319 319 317 317 314 314 316 317 317 316 315 316 317 318 317 317 318 318 319 322 324 328 330 333 332 333 333 333 333 331 330 328 326 325 325 324 324 322 321 320 318 317 318
319 319 318 317 316 315 316 316 316 315 315 318 316 318 321 319 319 321 322 320 323 321 325 328 331 332 332 332 331 331 329 327 324 324 324 323 321 319 318 316 316 316 314
321 319 319 318 319 317 317 317 319 320 320 318 314 315 314 315 317 319 319 318 318 318 319 320 322 328 331 330 330 329 328 325 324 323 322 319 317 316 315 315 314 314 312
322 320 320 320 319 318 318 320 322 321 320 316 314 313 313 313 316 318 317 316 315 314 314 314 312 316 323 329 329 328 326 325 323 319 318 317 316 315 314 313 313 312 311
322 321 320 321 320 322 322 322 322 322 320 316 316 316 316 315 314 315 314 315 313 312 310 310 309 308 315 320 326 327 325 322 320 317 317 315 314 313 312 311 310 309 309
323 322 322 322 323 322 323 323 322 321 320 320 318 317 315 313 312 315 314 313 311 309 305 304 304 304 305 312 315 319 321 320 318 315 314 313 312 311 310 309 308 308 307
324 324 324 325 324 323 323 323 321 319 319 320 316 314 307 308 310 314 312 309 306 304 302 301 300 301 301 303 306 310 312 314 314 313 311 310 309 308 307 306 306 305 305
326 327 327 327 326 325 324 324 322 320 317 319 319 312 306 304 310 311 306 305 303 300 299 298 297 298 298 299 300 301 303 305 307 308 307 306 306 305 305 304 304 303 303
327 328 328 327 327 326 325 324 323 321 320 317 318 318 317 316 310 307 304 301 301 299 297 296 294 295 296 296 297 299 300 300 300 300 301 301 301 301 301 301 302 302 302
329 329 329 329 327 326 324 324 322 321 321 319 318 318 318 318 318 313 306 299 297 295 294 294 293 292 292 292 294 296 297 297 296 296 296 297 297 297 298 299 300 300 300
328 328 328 327 327 326 324 323 323 322 320 320 320 321 319 317 316 315 313 302 298 292 293 292 292 290 290 290 291 292 294 295 295 294 294 294 294 295 296 297 297 298 298
318 320 320 319 317 317 317 318 319 317 315 316 313 310 308 307 308 310 311 301 296 292 291 290 290 289 289 288 288 288 290 292 292 292 292 292 292 292 293 295 295 296 296
308 311 311 310 309 309 308 308 306 305 305 305 303 303 301 300 302 303 305 303 296 294 292 289 288 287 287 287 286 285 284 287 288 289 289 290 291 291 292 293 294 294 294
304 304 305 304 303 303 303 302 301 300 300 300 298 297 296 295 296 297 299 302 303 295 292 288 286 287 287 286 285 282 279 285 286 287 288 289 289 290 290 291 292 292 293
299 300 300 300 299 299 299 299 297 296 295 294 294 292 292 292 291 292 294 295 298 300 289 288 285 285 285 283 283 278 279 282 284 285 286 287 288 288 289 289 290 291 291
295 295 295 295 295 295 295 293 292 292 290 289 289 288 287 288 287 288 289 290 291 292 287 283 283 281 279 278 279 279 279 278 277 283 286 287 287 287 287 288 288 289 289
292 292 292 291 291 290 291 290 288 288 288 287 286 286 284 285 284 284 284 283 283 284 284 279 277 276 276 277 277 277 278 279 277 280 285 285 285 285 286 286 286 286 286
289 289 289 289 288 288 288 287 287 285 284 284 283 282 282 283 281 281 280 280 279 280 280 280 276 277 276 276 276 276 276 276 278 281 282 282 283 283 284 285 285 284 284
287 287 287 287 287 286 286 285 285 284 283 283 282 282 281 280 279 279 279 278 279 278 278 277 276 275 275 276 275 274 274 275 274 278 278 279 281 281 282 283 282 281 283
285 286 286 286 286 285 284 283 283 282 282 281 281 281 281 282 285 282 279 278 278 277 277 276 275 274 274 274 273 274 273 272 273 273 273 274 274 274 275 278 278 282 284
285 285 284 285 284 285 286 285 283 281 280 279 278 278 279 279 283 284 284 284 281 277 276 276 274 273 273 273 273 273 272 270 269 274 272 272 273 273 274 274 280 283 284
282 282 283 283 283 284 285 284 282 279 278 278 277 277 277 278 277 277 280 280 280 282 280 276 274 273 273 273 273 272 271 271 270 272 271 268 271 271 274 275 280 282 283
280 280 280 281 281 282 284 283 281 279 278 278 278 278 277 277 278 277 276 276 276 276 275 276 274 274 273 274 273 273 271 270 268 271 271 263 267 268 271 273 278 280 281
279 279 280 280 280 281 284 283 281 279 278 277 278 278 278 278 281 281 277 276 275 275 278 279 278 277 277 277 276 271 263 262 261 265 267 264 264 264 265 268 271 277 280
279 279 279 279 278 280 284 283 281 280 278 278 278 278 280 278 281 280 276 276 273 274 274 273 273 274 275 274 276 272 269 261 261 260 266 263 262 262 262 263 266 272 270
Wind_Speed
4 4 4 4 3 3 3 2 2 1 2 2 1 1 1 1 2 1 1 3 3 7 11 10 9 5 7 8 8 11 13 12 10 10 11 10 10 11 13 12 13 14 13
4 4 4 4 4 4 3 3 3 3 3 2 2 2 4 3 3 4 2 2 6 8 9 13 9 7 6 7 9 11 13 12 11 10 9 9 11 12 12 12 11 12 11
6 5 4 4 4 4 4 3 3 3 2 2 2 3 2 2 3 5 4 3 3 10 11 14 16 8 5 5 8 12 12 12 8 9 9 11 10 11 11 10 11 11 12
8 6 4 4 4 4 4 4 4 3 2 2 1 2 1 2 3 4 4 3 3 4 9 15 17 20 11 5 6 8 10 9 8 11 12 9 7 8 9 9 10 12 13
8 6 6 6 6 5 5 4 3 3 3 3 3 3 3 1 2 3 5 5 5 4 4 10 16 19 21 19 8 6 7 9 14 11 12 11 10 10 10 10 11 12 12
9 7 6 7 6 5 5 3 3 4 3 2 2 2 3 4 3 4 4 5 5 4 4 4 4 7 17 20 19 14 15 14 14 14 11 11 10 10 10 11 12 12 12
9 8 5 6 7 6 6 6 3 4 4 2 1 2 5 5 5 4 4 4 6 6 5 5 5 4 6 17 18 17 14 13 13 13 12 13 12 10 11 12 12 13 13
10 8 6 6 7 6 5 5 4 2 2 4 2 1 1 1 3 3 3 4 6 4 6 7 7 8 6 5 11 16 16 15 13 12 12 12 11 11 11 11 11 12 13
10 9 8 6 7 6 6 6 6 7 3 2 4 4 2 3 2 2 3 4 5 5 5 6 7 7 7 5 7 9 14 14 14 13 13 12 12 12 12 11 12 12 13
9 8 7 5 5 3 5 7 4 3 3 3 1 3 2 3 3 3 2 3 4 5 5 4 5 6 7 5 9 11 13 14 13 13 13 13 12 11 11 11 12 13 13
5 5 6 4 4 3 3 4 4 4 3 3 3 2 3 4 4 3 3 3 3 4 4 4 4 4 6 4 4 7 10 9 10 11 11 11 11 11 11 11 12 12 13
5 6 6 6 5 3 4 3 3 4 4 3 3 3 2 2 2 3 3 2 2 3 3 3 3 3 4 3 5 9 8 7 9 9 9 10 10 11 12 12 12 13 13
2 3 7 5 4 5 3 3 3 3 1 2 2 2 2 2 2 2 1 2 2 2 3 2 3 3 3 1 3 5 7 7 7 7 7 8 8 10 11 13 13 13 13
4 5 7 6 6 5 6 5 4 4 4 4 6 4 3 2 2 2 1 3 2 2 2 3 1 2 2 0 1 5 4 7 7 6 7 7 8 9 12 13 13 13 13
5 6 7 7 7 7 6 6 4 5 6 4 5 4 3 2 3 3 2 0 2 3 2 2 2 1 2 1 4 3 3 5 5 7 8 8 8 10 13 13 13 13 14
5 7 8 7 7 8 7 5 6 5 7 4 4 5 4 3 4 4 3 3 2 1 3 1 2 2 0 3 3 2 3 4 7 8 8 7 8 12 12 12 12 14 15
7 9 9 8 7 8 7 8 5 7 9 6 6 6 6 6 4 5 4 3 4 3 4 2 2 3 2 1 2 2 2 2 4 9 8 8 10 12 11 11 12 14 16
8 9 8 8 7 8 6 8 6 6 8 8 6 6 7 6 7 6 4 6 4 4 4 3 1 2 2 1 2 2 2 2 4 6 6 8 12 11 9 11 14 16 15
9 9 8 8 7 8 8 8 7 8 9 8 8 8 6 6 6 4 5 5 4 4 3 4 3 1 1 2 2 2 2 3 3 5 7 11 10 9 8 12 14 14 12
7 8 7 7 6 9 8 8 8 9 9 9 8 8 6 6 6 5 6 5 5 5 4 4 3 2 2 1 2 1 3 2 3 2 8 8 10 8 9 11 15 13 14
7 6 7 8 9 8 5 7 8 8 9 9 8 8 8 8 13 10 4 5 5 4 3 3 3 1 2 3 2 2 3 3 2 2 4 3 3 3 4 7 9 14 15
7 8 9 9 9 7 13 13 9 8 8 8 8 6 6 7 12 16 16 16 9 2 3 2 1 2 1 0 1 2 2 3 4 2 5 4 2 3 3 3 15 16 14
7 9 9 9 9 7 13 13 12 7 7 6 6 5 5 4 5 5 11 13 12 14 11 2 2 1 1 1 1 2 1 1 2 3 3 4 3 5 3 7 16 15 13
7 6 6 6 7 7 13 13 12 6 6 6 5 4 5 4 5 4 5 5 5 5 5 4 4 2 1 2 0 1 2 3 4 2 2 3 3 4 7 8 11 13 15
6 5 4 5 6 6 11 11 8 5 6 5 5 4 4 4 6 6 4 4 3 3 5 5 3 1 1 2 1 2 3 3 4 2 2 0 2 4 4 7 4 13 23
5 4 5 4 4 5 8 8 6 3 4 3 3 4 5 4 6 6 4 4 3 3 3 3 3 3 4 5 5 3 2 2 1 4 2 1 3 3 5 4 5 8 9
Wind_Direction
150 144 155 161 166 159 172 181 206 211 228 235 240 227 284 254 221 174 216 249 53 53 26 12 26 63 78 98 110 110 110 105 96 91 78 72 65 61 58 44 38 33 22
158 162 159 175 180 184 188 190 188 195 213 200 261 264 244 229 223 167 168 121 56 62 44 30 13 24 83 103 115 119 114 101 98 90 89 80 72 62 53 41 26 23 24
167 164 167 175 189 184 192 187 187 197 203 213 245 274 233 231 229 172 148 128 91 68 48 39 27 19 74 100 129 130 123 115 111 87 75 75 70 62 48 27 24 20 10
172 165 169 193 186 179 181 186 193 187 205 176 253 269 291 269 267 151 126 114 61 63 58 55 41 38 38 74 123 131 120 104 88 84 76 65 53 52 39 35 28 14 3
176 172 182 191 178 178 194 189 188 174 189 199 223 234 247 341 38 100 107 85 81 67 82 69 55 41 41 34 40 79 95 107 87 71 65 51 42 31 32 26 20 15 1
179 177 180 186 174 183 191 191 179 192 198 205 221 268 33 46 58 85 94 87 81 69 59 39 50 42 47 45 38 55 68 69 68 65 58 49 40 37 20 17 7 7 360
183 191 188 180 181 181 187 190 169 185 229 182 70 91 58 44 60 78 86 87 79 70 56 41 41 38 37 45 47 49 54 65 64 63 52 42 34 27 19 16 3 8 4
189 194 180 184 184 183 184 178 171 170 231 175 166 87 129 23 49 73 92 96 84 73 64 53 59 53 39 42 47 48 47 45 52 57 53 41 28 20 19 15 7 3 0
192 194 188 182 186 184 191 191 186 188 187 181 201 147 128 221 142 141 66 80 90 76 62 54 50 57 51 48 45 43 51 44 42 39 39 39 30 20 15 10 6 1 354
195 194 187 171 177 188 200 197 173 161 160 196 208 222 236 145 187 188 160 99 75 80 73 61 59 46 38 39 39 38 55 50 39 35 35 32 30 19 7 4 2 358 349
173 165 145 148 216 210 222 197 167 181 178 181 193 205 219 213 222 195 191 164 101 79 64 71 60 66 50 22 55 35 50 64 57 42 36 30 27 15 5 2 356 350 346
190 184 173 170 165 176 196 197 161 198 201 218 203 208 236 262 218 192 195 127 131 89 79 71 54 53 67 29 47 27 38 50 58 46 31 24 18 7 0 354 351 346 344
53 111 113 99 93 96 72 77 89 86 62 133 94 94 48 49 319 358 11 114 112 126 111 65 64 64 81 59 52 8 18 34 37 29 14 6 357 355 351 348 346 342 339
74 62 80 76 76 82 83 69 77 77 65 60 82 76 82 56 9 22 70 136 129 141 140 131 116 101 87 112 38 44 23 17 23 15 4 352 344 344 343 341 340 341 339
74 76 81 95 80 70 74 86 85 86 78 68 80 83 85 55 46 42 27 271 174 170 158 144 129 157 116 102 62 45 16 3 7 1 354 352 347 343 341 339 337 338 335
56 68 75 76 74 79 71 78 94 85 96 69 72 86 68 70 53 26 17 20 4 105 117 51 84 125 31 89 52 51 343 14 359 346 333 336 338 344 338 334 335 335 334
51 64 63 58 68 80 76 74 67 95 91 85 63 65 56 49 50 39 23 23 33 30 95 76 65 35 50 23 16 6 355 6 343 331 322 336 333 332 331 338 339 334 330
75 77 73 70 64 68 74 86 77 73 81 76 67 64 53 56 48 45 42 44 44 29 110 122 111 41 57 339 353 313 326 333 332 324 349 335 326 331 335 338 337 333 332
57 54 65 71 72 81 76 72 80 78 73 71 67 64 51 61 56 45 55 55 44 53 63 123 122 110 28 14 338 332 312 321 330 339 338 327 326 328 330 334 334 334 331
63 71 69 77 84 76 75 78 83 81 81 71 69 66 71 69 70 60 63 56 57 63 57 80 81 83 38 6 56 352 325 332 321 336 322 320 329 322 324 332 336 332 323
49 57 82 79 71 69 78 89 89 91 91 85 72 64 56 59 73 68 69 45 55 66 74 70 76 83 20 13 8 324 294 307 282 12 309 309 310 289 302 326 314 321 326
59 66 60 64 66 75 88 93 93 91 87 88 85 68 60 51 65 69 67 65 64 61 69 89 73 99 171 348 323 312 308 359 331 32 339 295 326 294 280 290 324 326 326
70 64 62 70 72 75 88 88 84 79 81 74 76 80 76 63 63 69 70 66 52 56 59 83 119 123 173 224 277 317 322 287 262 322 340 294 337 303 287 316 323 324 326
76 72 74 75 89 91 94 95 92 86 89 85 87 87 88 87 82 83 83 71 55 55 55 50 63 103 166 193 236 287 312 312 303 290 16 276 337 290 312 309 320 322 323
79 78 77 87 94 97 108 110 104 95 90 84 85 79 86 79 71 70 77 82 81 52 35 34 54 37 329 285 237 66 340 39 317 299 353 68 302 292 301 299 312 316 323
107 95 88 74 91 101 110 110 109 109 116 115 95 99 100 89 73 62 66 48 42 17 357 347 352 340 325 297 283 200 155 140 263 329 267 333 327 344 317 290 310 326 314